,,Stat1,,Stat2,,Stat3,,Stat4,,Wind1,,Wind1,
time,status,PR1M_SUM,status,RH1M_AVG,status,SR1M_AVG,status,TA1M_AVG,status,W1dAve1m,status,W1sAve1m,
1999-11-18, 00:01:00,VALID,0,VALID,95.9413,VALID,-0.0679233,VALID,19.6604,VALID,121,VALID,0,
1999-11-18, 00:02:01,VALID,0,VALID,95.9718,VALID,-0.0339617,VALID,19.6639,VALID,122,VALID,0,
1999-11-18, 00:03:01,VALID,0,VALID,95.8739,VALID,-0.0339617,VALID,19.6539,VALID,122,VALID,0.342061,
1999-11-18, 00:04:00,VALID,0,VALID,95.5535,VALID,-0.0679233,VALID,19.6091,VALID,117,VALID,0.65842,
1999-11-18, 00:05:00,VALID,0,VALID,95.2088,VALID,-0.0339617,VALID,19.5597,VALID,113,VALID,0.641681,
1999-11-18, 00:06:00,VALID,0,VALID,95.3996,VALID,-0.0679233,VALID,19.5442,VALID,116,VALID,0.59395,
1999-11-18, 00:07:00,VALID,0,VALID,95.392,VALID,-0.0509425,VALID,19.5119,VALID,116,VALID,0.471917,
1999-11-18, 00:08:00,VALID,0,VALID,95.4212,VALID,-0.0679233,VALID,19.5223,VALID,115,VALID,0.152449,
1999-11-18, 00:09:00,VALID,0,VALID,95.9337,VALID,-0.0679233,VALID,19.4962,VALID,115,VALID,0,
1999-11-18, 00:10:00,VALID,0,VALID,95.3182,VALID,-0.0679233,VALID,19.4507,VALID,115,VALID,0,
1999-11-18, 00:11:00,VALID,0,VALID,95.6717,VALID,-0.0849042,VALID,19.4512,VALID,86,VALID,0.417383,
1999-11-18, 00:12:00,VALID,0,VALID,95.6323,VALID,-0.0169808,VALID,19.4244,VALID,85,VALID,0.794341,
1999-11-18, 00:13:01,VALID,0,VALID,94.8401,VALID,-0.0339617,VALID,19.438,VALID,89,VALID,0.842748,
1999-11-18, 00:14:00,VALID,0,VALID,94.5196,VALID,-0.0339617,VALID,19.4863,VALID,93,VALID,0.801309,
1999-11-18, 00:15:00,VALID,0,VALID,94.8312,VALID,-0.0849042,VALID,19.4932,VALID,111,VALID,0.730273,
1999-11-18, 00:16:00,VALID,0,VALID,95.0474,VALID,-0.0339617,VALID,19.4731,VALID,106,VALID,0.490287,
1999-11-18, 00:17:00,VALID,0,VALID,94.9126,VALID,-0.0169808,VALID,19.454,VALID,106,VALID,0.495192,
1999-11-18, 00:18:00,VALID,0,VALID,95.0295,VALID,-0.0169808,VALID,19.4152,VALID,103,VALID,0.711993,
1999-11-18, 00:19:00,VALID,0,VALID,95.2699,VALID,-0.0509425,VALID,19.3731,VALID,104,VALID,0.618359,
1999-11-18, 00:20:00,VALID,0,VALID,95.0156,VALID,-0.0339617,VALID,19.35,VALID,98,VALID,0.804476,
1999-11-18, 00:21:00,VALID,0,VALID,94.8057,VALID,0,VALID,19.3567,VALID,108,VALID,0.83133,
1999-11-18, 00:22:00,VALID,0,VALID,95.2317,VALID,0.0339617,VALID,19.3784,VALID,126,VALID,0.801943,
1999-11-18, 00:23:00,VALID,0,VALID,95.0219,VALID,0.0169808,VALID,19.3881,VALID,129,VALID,0.684766,
1999-11-18, 00:24:00,VALID,0,VALID,94.8681,VALID,0.0339617,VALID,19.3876,VALID,134,VALID,0.60473,
1999-11-18, 00:25:01,VALID,0,VALID,94.7816,VALID,0.0339617,VALID,19.404,VALID,121,VALID,0.478165,
1999-11-18, 00:26:00,VALID,0,VALID,95.1033,VALID,0.0339617,VALID,19.4008,VALID,121,VALID,0.509924,
1999-11-18, 00:27:00,VALID,0,VALID,95.397,VALID,0.0339617,VALID,19.4012,VALID,129,VALID,0.55625,
1999-11-18, 00:28:00,VALID,0,VALID,95.2966,VALID,0,VALID,19.3622,VALID,143,VALID,0.787796,
1999-11-18, 00:29:00,VALID,0,VALID,95.2559,VALID,0,VALID,19.3199,VALID,148,VALID,0.935296,
1999-11-18, 00:30:00,VALID,0,VALID,95.4975,VALID,0.0169808,VALID,19.2978,VALID,143,VALID,0.90625,
1999-11-18, 00:31:00,VALID,0,VALID,95.7378,VALID,0,VALID,19.2655,VALID,142,VALID,0.808984,
1999-11-18, 00:32:00,VALID,0,VALID,95.8688,VALID,0.0169808,VALID,19.2297,VALID,143,VALID,0.785473,
1999-11-18, 00:33:00,VALID,0,VALID,96.0201,VALID,0,VALID,19.2137,VALID,151,VALID,0.838542,
1999-11-18, 00:34:00,VALID,0,VALID,96.1804,VALID,0.0169808,VALID,19.1911,VALID,155,VALID,0.717272,
1999-11-18, 00:35:00,VALID,0,VALID,96.4817,VALID,0.0169808,VALID,19.1816,VALID,151,VALID,0.565234,
1999-11-18, 00:36:01,VALID,0,VALID,96.5733,VALID,0,VALID,19.1655,VALID,151,VALID,0.368877,
1999-11-18, 00:37:00,VALID,0,VALID,96.7577,VALID,-0.101885,VALID,19.157,VALID,151,VALID,0.126603,
1999-11-18, 00:38:00,VALID,0,VALID,96.9179,VALID,-0.0849042,VALID,19.1508,VALID,149,VALID,0,
1999-11-18, 00:39:00,VALID,0,VALID,97.0972,VALID,-0.0849042,VALID,19.1411,VALID,148,VALID,0,
1999-11-18, 00:40:00,VALID,0,VALID,97.087,VALID,-0.0849042,VALID,19.1247,VALID,148,VALID,0,
1999-11-18, 00:41:00,VALID,0,VALID,97.1595,VALID,-0.101885,VALID,19.1378,VALID,148,VALID,0,
1999-11-18, 00:42:00,VALID,0,VALID,97.1938,VALID,-0.0849042,VALID,19.1346,VALID,147,VALID,0,
1999-11-18, 00:43:00,VALID,0,VALID,97.3324,VALID,-0.0679233,VALID,19.1473,VALID,147,VALID,0,
1999-11-18, 00:44:00,VALID,0,VALID,97.1074,VALID,-0.101885,VALID,19.1473,VALID,146,VALID,0,
1999-11-18, 00:45:00,VALID,0,VALID,96.7043,VALID,-0.101885,VALID,19.1341,VALID,145,VALID,0,
1999-11-18, 00:46:00,VALID,0,VALID,96.5479,VALID,-0.101885,VALID,19.1672,VALID,144,VALID,0,
1999-11-18, 00:47:01,VALID,0,VALID,96.4919,VALID,-0.101885,VALID,19.1739,VALID,149,VALID,0,
1999-11-18, 00:48:00,VALID,0,VALID,96.6292,VALID,-0.0679233,VALID,19.1799,VALID,157,VALID,0,
1999-11-18, 00:49:00,VALID,0,VALID,96.6038,VALID,-0.0849042,VALID,19.1667,VALID,183,VALID,0,
1999-11-18, 00:50:00,VALID,0,VALID,96.6089,VALID,-0.0679233,VALID,19.157,VALID,215,VALID,0.286318,
1999-11-18, 00:51:00,VALID,0,VALID,96.6992,VALID,-0.0849042,VALID,19.1272,VALID,229,VALID,0.366211,
1999-11-18, 00:52:00,VALID,0,VALID,96.7729,VALID,-0.0849042,VALID,19.1115,VALID,229,VALID,0.567779,
1999-11-18, 00:53:00,VALID,0,VALID,97.0463,VALID,-0.0849042,VALID,19.1053,VALID,225,VALID,0.259415,
1999-11-18, 00:54:00,VALID,0,VALID,97.4609,VALID,-0.101885,VALID,19.1053,VALID,240,VALID,0.0375845,
1999-11-18, 00:55:00,VALID,0,VALID,97.7724,VALID,-0.101885,VALID,19.115,VALID,243,VALID,0,
1999-11-18, 00:56:00,VALID,0,VALID,97.8754,VALID,-0.101885,VALID,19.1284,VALID,243,VALID,0,
1999-11-18, 00:57:01,VALID,0,VALID,97.8868,VALID,-0.118866,VALID,19.1085,VALID,243,VALID,0,
1999-11-18, 00:58:01,VALID,0,VALID,97.8525,VALID,-0.101885,VALID,19.1182,VALID,223,VALID,0,
1999-11-18, 00:59:00,VALID,0,VALID,97.9441,VALID,-0.0679233,VALID,19.0983,VALID,213,VALID,0,
1999-11-18, 01:00:00,VALID,0,VALID,98.1081,VALID,-0.101885,VALID,19.105,VALID,204,VALID,0,
1999-11-18, 01:01:00,VALID,0,VALID,98.0064,VALID,-0.101885,VALID,19.0829,VALID,192,VALID,0,
1999-11-18, 01:02:00,VALID,0,VALID,97.9708,VALID,-0.101885,VALID,19.0374,VALID,192,VALID,0,
1999-11-18, 01:03:00,VALID,0,VALID,98.1768,VALID,-0.101885,VALID,19.0341,VALID,203,VALID,0,
1999-11-18, 01:04:00,VALID,0,VALID,98.3853,VALID,-0.101885,VALID,19.0505,VALID,205,VALID,0,
1999-11-18, 01:05:00,VALID,0,VALID,98.4451,VALID,-0.101885,VALID,19.0572,VALID,203,VALID,0,
1999-11-18, 01:06:00,VALID,0,VALID,98.351,VALID,-0.118866,VALID,19.0242,VALID,181,VALID,0,
1999-11-18, 01:07:00,VALID,0,VALID,98.4324,VALID,-0.101885,VALID,19.0152,VALID,179,VALID,0,
1999-11-18, 01:08:00,VALID,0,VALID,98.4959,VALID,-0.101885,VALID,19.012,VALID,194,VALID,0,
1999-11-18, 01:09:01,VALID,0,VALID,98.5468,VALID,-0.118866,VALID,19.0182,VALID,196,VALID,0,
1999-11-18, 01:10:00,VALID,0,VALID,98.4133,VALID,-0.0339617,VALID,18.9986,VALID,197,VALID,0.461149,
1999-11-18, 01:11:00,VALID,0,VALID,98.3205,VALID,-0.101885,VALID,19.0018,VALID,199,VALID,0.770312,
1999-11-18, 01:12:00,VALID,0,VALID,98.2645,VALID,-0.101885,VALID,19.0184,VALID,201,VALID,0.703758,
1999-11-18, 01:13:00,VALID,0,VALID,98.2378,VALID,-0.101885,VALID,19.0113,VALID,203,VALID,0.830729,
1999-11-18, 01:14:00,VALID,0,VALID,98.1552,VALID,-0.0849042,VALID,19.0212,VALID,208,VALID,0.73522,
1999-11-18, 01:15:00,VALID,0,VALID,98.0433,VALID,-0.0849042,VALID,19.0182,VALID,209,VALID,0.855078,
1999-11-18, 01:16:00,VALID,0,VALID,98.0267,VALID,-0.0679233,VALID,19.0247,VALID,208,VALID,0.829814,
1999-11-18, 01:17:00,VALID,0,VALID,98.0165,VALID,-0.101885,VALID,19.0279,VALID,207,VALID,0.910056,
1999-11-18, 01:18:00,VALID,0,VALID,98.0394,VALID,-0.0679233,VALID,19.0378,VALID,206,VALID,0.731841,
1999-11-18, 01:19:00,VALID,0,VALID,98.117,VALID,-0.101885,VALID,19.0279,VALID,218,VALID,0.956836,
1999-11-18, 01:20:01,VALID,0,VALID,98.1831,VALID,-0.101885,VALID,19.0376,VALID,207,VALID,0.744721,
1999-11-18, 01:21:00,VALID,0,VALID,98.1819,VALID,-0.0679233,VALID,19.0376,VALID,213,VALID,0.792268,
1999-11-18, 01:22:00,VALID,0,VALID,98.2213,VALID,0.0169808,VALID,19.0396,VALID,212,VALID,0.686655,
1999-11-18, 01:23:00,VALID,0,VALID,98.2353,VALID,0.0169808,VALID,19.0337,VALID,215,VALID,0.642187,
1999-11-18, 01:24:00,VALID,0,VALID,98.3281,VALID,0.0169808,VALID,19.0232,VALID,209,VALID,0.580236,
1999-11-18, 01:25:00,VALID,0,VALID,98.384,VALID,0,VALID,19.017,VALID,220,VALID,0.046875,
1999-11-18, 01:26:00,VALID,0,VALID,98.501,VALID,0,VALID,19.0177,VALID,228,VALID,0,
1999-11-18, 01:27:00,VALID,0,VALID,98.6015,VALID,0,VALID,19.0173,VALID,235,VALID,0,
1999-11-18, 01:28:00,VALID,0,VALID,98.6638,VALID,0,VALID,19.021,VALID,225,VALID,0,
1999-11-18, 01:29:00,VALID,0,VALID,98.7197,VALID,0.0169808,VALID,19.0046,VALID,213,VALID,0,
1999-11-18, 01:30:00,VALID,0,VALID,98.7795,VALID,0.0169808,VALID,19.0076,VALID,224,VALID,0,
1999-11-18, 01:31:01,VALID,0,VALID,98.7744,VALID,0,VALID,18.9785,VALID,228,VALID,0,
1999-11-18, 01:32:00,VALID,0,VALID,98.852,VALID,0,VALID,18.9655,VALID,229,VALID,0,
1999-11-18, 01:33:00,VALID,0,VALID,98.9245,VALID,0,VALID,18.9725,VALID,231,VALID,0,
1999-11-18, 01:34:00,VALID,0,VALID,98.9817,VALID,0.0509425,VALID,18.9588,VALID,235,VALID,0,
1999-11-18, 01:35:00,VALID,0,VALID,99.0237,VALID,0.0339617,VALID,18.9521,VALID,241,VALID,0,
1999-11-18, 01:36:00,VALID,0,VALID,99.0834,VALID,0,VALID,18.9561,VALID,243,VALID,0,
1999-11-18, 01:37:00,VALID,0,VALID,99.1012,VALID,0.0169808,VALID,18.9524,VALID,247,VALID,0,
1999-11-18, 01:38:00,VALID,0,VALID,99.1241,VALID,0.0339617,VALID,18.9429,VALID,249,VALID,0,
1999-11-18, 01:39:00,VALID,0,VALID,99.1521,VALID,0.0169808,VALID,18.9362,VALID,250,VALID,0,
1999-11-18, 01:40:00,VALID,0,VALID,99.1597,VALID,0.0169808,VALID,18.9334,VALID,250,VALID,0,
1999-11-18, 01:41:01,VALID,0,VALID,99.1559,VALID,0,VALID,18.9069,VALID,231,VALID,0,
1999-11-18, 01:42:00,VALID,0,VALID,99.2004,VALID,0.0169808,VALID,18.8974,VALID,234,VALID,0,
1999-11-18, 01:43:00,VALID,0,VALID,99.2576,VALID,0,VALID,18.9133,VALID,226,VALID,0,
1999-11-18, 01:44:00,VALID,0,VALID,99.2983,VALID,0.0339617,VALID,18.9295,VALID,213,VALID,0,
1999-11-18, 01:45:00,VALID,0,VALID,99.2983,VALID,0.0339617,VALID,18.9228,VALID,198,VALID,0,
1999-11-18, 01:46:00,VALID,0,VALID,99.2513,VALID,0.0169808,VALID,18.9041,VALID,198,VALID,0,
1999-11-18, 01:47:00,VALID,0,VALID,99.1801,VALID,0.0169808,VALID,18.8912,VALID,197,VALID,0,
1999-11-18, 01:48:00,VALID,0,VALID,99.1521,VALID,0,VALID,18.8459,VALID,194,VALID,0,
1999-11-18, 01:49:00,VALID,0,VALID,99.1775,VALID,0.0169808,VALID,18.8392,VALID,187,VALID,0,
1999-11-18, 01:50:00,VALID,0,VALID,99.1941,VALID,0,VALID,18.8395,VALID,187,VALID,0,
1999-11-18, 01:51:00,VALID,0,VALID,99.1763,VALID,0.0169808,VALID,18.8231,VALID,187,VALID,0,
1999-11-18, 01:52:00,VALID,0,VALID,99.2246,VALID,0.0169808,VALID,18.8499,VALID,187,VALID,0,
1999-11-18, 01:53:00,VALID,0,VALID,99.2271,VALID,0,VALID,18.8392,VALID,187,VALID,0,
1999-11-18, 01:54:00,VALID,0,VALID,99.1788,VALID,-0.0169808,VALID,18.8362,VALID,187,VALID,0,
1999-11-18, 01:55:00,VALID,0,VALID,99.1127,VALID,0.0339617,VALID,18.8168,VALID,178,VALID,0,
1999-11-18, 01:56:00,VALID,0,VALID,99.0148,VALID,0,VALID,18.7977,VALID,143,VALID,0,
1999-11-18, 01:57:00,VALID,0,VALID,98.9436,VALID,-0.0169808,VALID,18.7718,VALID,141,VALID,0,
1999-11-18, 01:58:00,VALID,0,VALID,98.9194,VALID,0.0169808,VALID,18.7688,VALID,141,VALID,0,
1999-11-18, 01:59:00,VALID,0,VALID,98.927,VALID,0.0509425,VALID,18.7785,VALID,140,VALID,0,
1999-11-18, 02:00:00,VALID,0,VALID,98.9308,VALID,0.0169808,VALID,18.7912,VALID,140,VALID,0,
1999-11-18, 02:01:00,VALID,0,VALID,98.8469,VALID,0.0169808,VALID,18.7845,VALID,139,VALID,0,
1999-11-18, 02:02:00,VALID,0,VALID,98.7757,VALID,0.0169808,VALID,18.772,VALID,138,VALID,0,
1999-11-18, 02:03:00,VALID,0,VALID,98.7414,VALID,0,VALID,18.7653,VALID,138,VALID,0,
1999-11-18, 02:04:00,VALID,0,VALID,98.7375,VALID,0.0169808,VALID,18.7651,VALID,146,VALID,0,
1999-11-18, 02:05:00,VALID,0,VALID,98.6638,VALID,0.0169808,VALID,18.772,VALID,149,VALID,0,
1999-11-18, 02:06:00,VALID,0,VALID,98.6549,VALID,0.0169808,VALID,18.7616,VALID,149,VALID,0,
1999-11-18, 02:07:00,VALID,0,VALID,98.6663,VALID,0.0509425,VALID,18.7549,VALID,149,VALID,0,
1999-11-18, 02:08:00,VALID,0,VALID,98.6256,VALID,0.0849042,VALID,18.7616,VALID,149,VALID,0,
1999-11-18, 02:09:00,VALID,0,VALID,98.5862,VALID,0.0509425,VALID,18.7589,VALID,149,VALID,0,
1999-11-18, 02:10:00,VALID,0,VALID,98.5188,VALID,0.0339617,VALID,18.7487,VALID,150,VALID,0,
1999-11-18, 02:11:00,VALID,0,VALID,98.4718,VALID,0.0339617,VALID,18.7425,VALID,158,VALID,0,
1999-11-18, 02:12:00,VALID,0,VALID,98.501,VALID,0,VALID,18.7228,VALID,158,VALID,0,
1999-11-18, 02:13:01,VALID,0,VALID,98.5697,VALID,0.0169808,VALID,18.7129,VALID,158,VALID,0,
1999-11-18, 02:14:00,VALID,0,VALID,98.6396,VALID,0.0339617,VALID,18.7196,VALID,156,VALID,0,
1999-11-18, 02:15:00,VALID,0,VALID,98.7032,VALID,0.101885,VALID,18.7328,VALID,156,VALID,0,
1999-11-18, 02:16:00,VALID,0,VALID,98.721,VALID,0.0509425,VALID,18.739,VALID,156,VALID,0,
1999-11-18, 02:17:00,VALID,0,VALID,98.7147,VALID,0.101885,VALID,18.7418,VALID,156,VALID,0,
1999-11-18, 02:18:00,VALID,0,VALID,98.6841,VALID,0.0509425,VALID,18.7489,VALID,157,VALID,0,
1999-11-18, 02:19:00,VALID,0,VALID,98.6536,VALID,0.0509425,VALID,18.7457,VALID,158,VALID,0,
1999-11-18, 02:20:00,VALID,0,VALID,98.7058,VALID,0.0509425,VALID,18.7614,VALID,153,VALID,0,
1999-11-18, 02:21:00,VALID,0,VALID,98.6918,VALID,0,VALID,18.7616,VALID,143,VALID,0,
1999-11-18, 02:22:00,VALID,0,VALID,98.7312,VALID,-0.0339617,VALID,18.7728,VALID,131,VALID,0,
1999-11-18, 02:23:00,VALID,0,VALID,98.7566,VALID,-0.0849042,VALID,18.7919,VALID,126,VALID,0,
1999-11-18, 02:24:00,VALID,0,VALID,98.7554,VALID,-0.0679233,VALID,18.7917,VALID,133,VALID,0,
1999-11-18, 02:25:01,VALID,0,VALID,98.7757,VALID,-0.0509425,VALID,18.8182,VALID,135,VALID,0,
1999-11-18, 02:26:00,VALID,0,VALID,98.7439,VALID,-0.0339617,VALID,18.8247,VALID,135,VALID,0,
1999-11-18, 02:27:00,VALID,0,VALID,98.6867,VALID,-0.0679233,VALID,18.8374,VALID,141,VALID,0,
1999-11-18, 02:28:00,VALID,0,VALID,98.5773,VALID,0,VALID,18.8046,VALID,156,VALID,0,
1999-11-18, 02:29:00,VALID,0,VALID,98.5672,VALID,-0.0849042,VALID,18.8083,VALID,169,VALID,0,
1999-11-18, 02:30:00,VALID,0,VALID,98.6015,VALID,-0.0339617,VALID,18.818,VALID,173,VALID,0,
1999-11-18, 02:31:00,VALID,0,VALID,98.6346,VALID,-0.0679233,VALID,18.821,VALID,179,VALID,0,
1999-11-18, 02:32:00,VALID,0,VALID,98.6981,VALID,-0.0509425,VALID,18.8309,VALID,182,VALID,0,
1999-11-18, 02:33:00,VALID,0,VALID,98.7732,VALID,-0.0339617,VALID,18.8436,VALID,197,VALID,0,
1999-11-18, 02:34:00,VALID,0,VALID,98.8278,VALID,-0.0849042,VALID,18.8432,VALID,205,VALID,0.106419,
1999-11-18, 02:35:00,VALID,0,VALID,98.9041,VALID,-0.0169808,VALID,18.8628,VALID,180,VALID,0.755469,
1999-11-18, 02:36:00,VALID,0,VALID,98.9486,VALID,0,VALID,18.8924,VALID,172,VALID,0.547086,
1999-11-18, 02:37:00,VALID,0,VALID,98.9474,VALID,0.101885,VALID,18.8743,VALID,194,VALID,0.709936,
1999-11-18, 02:38:00,VALID,0,VALID,98.9779,VALID,0.0509425,VALID,18.8939,VALID,191,VALID,0.789063,
1999-11-18, 02:39:00,VALID,0,VALID,98.9982,VALID,0.0849042,VALID,18.9099,VALID,215,VALID,0.645117,
1999-11-18, 02:40:00,VALID,0,VALID,99.0033,VALID,0.0849042,VALID,18.9096,VALID,179,VALID,0.470439,
1999-11-18, 02:41:00,VALID,0,VALID,99.058,VALID,0.0849042,VALID,18.9424,VALID,161,VALID,0.177484,
1999-11-18, 02:42:00,VALID,0,VALID,99.0338,VALID,0.0849042,VALID,18.9419,VALID,161,VALID,0,
1999-11-18, 02:43:00,VALID,0,VALID,98.9372,VALID,0.101885,VALID,18.9419,VALID,161,VALID,0,
1999-11-18, 02:44:00,VALID,0,VALID,98.8749,VALID,0.0849042,VALID,18.9327,VALID,161,VALID,0,
1999-11-18, 02:45:00,VALID,0,VALID,98.8431,VALID,0.0849042,VALID,18.926,VALID,165,VALID,0,
1999-11-18, 02:46:00,VALID,0,VALID,98.838,VALID,0.101885,VALID,18.9288,VALID,178,VALID,0,
1999-11-18, 02:47:00,VALID,0,VALID,98.88,VALID,0.101885,VALID,18.9419,VALID,209,VALID,0,
1999-11-18, 02:48:00,VALID,0,VALID,98.8507,VALID,0.101885,VALID,18.9389,VALID,206,VALID,0,
1999-11-18, 02:49:00,VALID,0,VALID,98.8456,VALID,0.0849042,VALID,18.9357,VALID,206,VALID,0,
1999-11-18, 02:50:00,VALID,0,VALID,98.8863,VALID,0.0849042,VALID,18.9457,VALID,223,VALID,0,
1999-11-18, 02:51:00,VALID,0,VALID,98.9512,VALID,0.0509425,VALID,18.9583,VALID,226,VALID,0,
1999-11-18, 02:52:00,VALID,0,VALID,98.955,VALID,-0.0169808,VALID,18.9658,VALID,246,VALID,0,
1999-11-18, 02:53:00,VALID,0,VALID,98.9677,VALID,0,VALID,18.9727,VALID,236,VALID,0,
1999-11-18, 02:54:00,VALID,0,VALID,98.9919,VALID,-0.0509425,VALID,18.9697,VALID,242,VALID,0,
1999-11-18, 02:55:00,VALID,0,VALID,99.0186,VALID,0,VALID,18.9759,VALID,249,VALID,0,
1999-11-18, 02:56:00,VALID,0,VALID,99.0593,VALID,-0.0169808,VALID,18.9792,VALID,251,VALID,0,
1999-11-18, 02:57:01,VALID,0,VALID,99.1012,VALID,-0.0339617,VALID,18.9958,VALID,258,VALID,0,
1999-11-18, 02:58:00,VALID,0,VALID,99.1267,VALID,-0.0169808,VALID,18.9889,VALID,291,VALID,0.21875,
1999-11-18, 02:59:00,VALID,0,VALID,99.133,VALID,-0.0169808,VALID,18.9856,VALID,296,VALID,0.39668,
1999-11-18, 03:00:00,VALID,0,VALID,99.133,VALID,0,VALID,18.9794,VALID,301,VALID,0.252323,
1999-11-18, 03:01:00,VALID,0,VALID,99.1699,VALID,-0.0849042,VALID,18.9762,VALID,286,VALID,0.253405,
1999-11-18, 03:02:00,VALID,0,VALID,99.2131,VALID,-0.0169808,VALID,18.9794,VALID,265,VALID,0,
1999-11-18, 03:03:00,VALID,0,VALID,99.2411,VALID,-0.0339617,VALID,18.9792,VALID,255,VALID,0.375781,
1999-11-18, 03:04:00,VALID,0,VALID,99.25,VALID,-0.0169808,VALID,18.9792,VALID,248,VALID,0.339949,
1999-11-18, 03:05:00,VALID,0,VALID,99.2665,VALID,-0.0169808,VALID,18.9794,VALID,246,VALID,0.506611,
1999-11-18, 03:06:00,VALID,0,VALID,99.2589,VALID,-0.0169808,VALID,18.9695,VALID,228,VALID,0.734586,
1999-11-18, 03:07:00,VALID,0,VALID,99.2551,VALID,-0.0169808,VALID,18.9665,VALID,228,VALID,0.657617,
1999-11-18, 03:08:00,VALID,0,VALID,99.2742,VALID,-0.0339617,VALID,18.9595,VALID,222,VALID,0.655405,
1999-11-18, 03:09:01,VALID,0,VALID,99.3021,VALID,-0.0339617,VALID,18.9568,VALID,220,VALID,0.760617,
1999-11-18, 03:10:00,VALID,0,VALID,99.2958,VALID,-0.0169808,VALID,18.9536,VALID,217,VALID,0.959248,
1999-11-18, 03:11:00,VALID,0,VALID,99.3187,VALID,-0.0509425,VALID,18.9468,VALID,218,VALID,0.616992,
1999-11-18, 03:12:00,VALID,0,VALID,99.3428,VALID,-0.0169808,VALID,18.9371,VALID,214,VALID,0.591639,
1999-11-18, 03:13:00,VALID,0,VALID,99.3365,VALID,0,VALID,18.9272,VALID,205,VALID,0,
1999-11-18, 03:14:00,VALID,0,VALID,99.3352,VALID,-0.0169808,VALID,18.911,VALID,188,VALID,0,
1999-11-18, 03:15:00,VALID,0,VALID,99.3009,VALID,-0.0849042,VALID,18.9148,VALID,180,VALID,0,
1999-11-18, 03:16:00,VALID,0,VALID,99.2831,VALID,-0.0679233,VALID,18.8981,VALID,180,VALID,0,
1999-11-18, 03:17:00,VALID,0,VALID,99.2767,VALID,-0.0339617,VALID,18.8984,VALID,179,VALID,0,
1999-11-18, 03:18:00,VALID,0,VALID,99.2437,VALID,-0.101885,VALID,18.8822,VALID,188,VALID,0,
1999-11-18, 03:19:00,VALID,0,VALID,99.2297,VALID,-0.0849042,VALID,18.8827,VALID,192,VALID,0,
1999-11-18, 03:20:01,VALID,0,VALID,99.1915,VALID,-0.101885,VALID,18.8695,VALID,174,VALID,0,
1999-11-18, 03:21:00,VALID,0,VALID,99.1826,VALID,-0.0509425,VALID,18.863,VALID,182,VALID,0,
1999-11-18, 03:22:00,VALID,0,VALID,99.0644,VALID,0,VALID,18.8489,VALID,204,VALID,0,
1999-11-18, 03:23:00,VALID,0,VALID,99.0364,VALID,0.0169808,VALID,18.8484,VALID,223,VALID,0.715039,
1999-11-18, 03:24:00,VALID,0,VALID,98.8952,VALID,0.0679233,VALID,18.8385,VALID,221,VALID,0.950802,
1999-11-18, 03:25:00,VALID,0,VALID,98.8736,VALID,0.0509425,VALID,18.8678,VALID,228,VALID,0.618389,
1999-11-18, 03:26:00,VALID,0,VALID,98.8812,VALID,0.0169808,VALID,18.8939,VALID,235,VALID,0.746199,
1999-11-18, 03:27:00,VALID,0,VALID,98.8863,VALID,0.0509425,VALID,18.9198,VALID,232,VALID,0.177734,
1999-11-18, 03:28:00,VALID,0,VALID,98.8545,VALID,0.0339617,VALID,18.9293,VALID,241,VALID,0,
1999-11-18, 03:29:00,VALID,0,VALID,98.8024,VALID,0.0339617,VALID,18.9325,VALID,265,VALID,0,
1999-11-18, 03:30:00,VALID,0,VALID,98.8469,VALID,0.0339617,VALID,18.9355,VALID,278,VALID,0,
1999-11-18, 03:31:01,VALID,0,VALID,98.8533,VALID,0.0509425,VALID,18.9546,VALID,253,VALID,0,
1999-11-18, 03:32:00,VALID,0,VALID,98.8571,VALID,0.0509425,VALID,18.9546,VALID,247,VALID,0,
1999-11-18, 03:33:00,VALID,0,VALID,98.7897,VALID,0.0679233,VALID,18.9549,VALID,231,VALID,0,
1999-11-18, 03:34:00,VALID,0,VALID,98.7859,VALID,0.101885,VALID,18.9417,VALID,233,VALID,0,
1999-11-18, 03:35:00,VALID,0,VALID,98.7719,VALID,0.0679233,VALID,18.9457,VALID,235,VALID,0,
1999-11-18, 03:36:00,VALID,0,VALID,98.7782,VALID,0.0339617,VALID,18.936,VALID,223,VALID,0,
1999-11-18, 03:37:00,VALID,0,VALID,98.7617,VALID,0.0509425,VALID,18.936,VALID,215,VALID,0,
1999-11-18, 03:38:00,VALID,0,VALID,98.7541,VALID,0.0509425,VALID,18.9228,VALID,215,VALID,0,
1999-11-18, 03:39:00,VALID,0,VALID,98.7452,VALID,0.0339617,VALID,18.923,VALID,214,VALID,0,
1999-11-18, 03:40:00,VALID,0,VALID,98.6803,VALID,0.0339617,VALID,18.9066,VALID,191,VALID,0,
1999-11-18, 03:41:01,VALID,0,VALID,98.6295,VALID,0.0169808,VALID,18.8909,VALID,184,VALID,0,
1999-11-18, 03:42:01,VALID,0,VALID,98.5697,VALID,0.0509425,VALID,18.8614,VALID,180,VALID,0,
1999-11-18, 03:43:00,VALID,0,VALID,98.4108,VALID,0.0169808,VALID,18.8554,VALID,187,VALID,0,
1999-11-18, 03:44:00,VALID,0,VALID,98.3853,VALID,0.0339617,VALID,18.8549,VALID,187,VALID,0,
1999-11-18, 03:45:00,VALID,0,VALID,98.1348,VALID,0.0679233,VALID,18.8385,VALID,195,VALID,0.795473,
1999-11-18, 03:46:00,VALID,0,VALID,98.07,VALID,0.0679233,VALID,18.8708,VALID,201,VALID,0.77386,
1999-11-18, 03:47:00,VALID,0,VALID,97.747,VALID,0.0679233,VALID,18.8738,VALID,201,VALID,1.08867,
1999-11-18, 03:48:00,VALID,0,VALID,97.293,VALID,0.0679233,VALID,18.8773,VALID,200,VALID,0.974029,
1999-11-18, 03:49:00,VALID,0,VALID,97.0196,VALID,0.0509425,VALID,18.9163,VALID,202,VALID,0.910857,
1999-11-18, 03:50:00,VALID,0,VALID,96.8378,VALID,0.0679233,VALID,18.9554,VALID,196,VALID,0.800676,
1999-11-18, 03:51:00,VALID,0,VALID,96.675,VALID,0.0509425,VALID,18.9747,VALID,187,VALID,1.0291,
1999-11-18, 03:52:00,VALID,0,VALID,96.5313,VALID,0.0509425,VALID,18.9844,VALID,185,VALID,0.928421,
1999-11-18, 03:53:01,VALID,0,VALID,96.7271,VALID,0.0339617,VALID,19.0103,VALID,177,VALID,0.766426,
1999-11-18, 03:54:00,VALID,0,VALID,96.8212,VALID,0.0509425,VALID,18.9967,VALID,186,VALID,1.10431,
1999-11-18, 03:55:00,VALID,0,VALID,96.956,VALID,0.0339617,VALID,18.9872,VALID,193,VALID,1.26992,
1999-11-18, 03:56:00,VALID,0,VALID,97.0311,VALID,0.0509425,VALID,18.9979,VALID,194,VALID,1.32348,
1999-11-18, 03:57:00,VALID,0,VALID,97.0756,VALID,0.0679233,VALID,18.9643,VALID,191,VALID,1.29848,
1999-11-18, 03:58:00,VALID,0,VALID,97.1836,VALID,0.0169808,VALID,18.975,VALID,191,VALID,0.873311,
1999-11-18, 03:59:00,VALID,0,VALID,97.3935,VALID,0.0509425,VALID,18.9551,VALID,193,VALID,0.822852,
1999-11-18, 04:00:00,VALID,0,VALID,97.5448,VALID,0.0509425,VALID,18.9389,VALID,191,VALID,1.08214,
1999-11-18, 04:01:00,VALID,0,VALID,97.6948,VALID,0.0679233,VALID,18.929,VALID,206,VALID,0.755008,
1999-11-18, 04:02:00,VALID,0,VALID,97.7915,VALID,0.101885,VALID,18.9225,VALID,199,VALID,0.721284,
1999-11-18, 04:03:00,VALID,0,VALID,97.9021,VALID,0.0339617,VALID,18.9131,VALID,191,VALID,1.03105,
1999-11-18, 04:04:01,VALID,0,VALID,97.9898,VALID,0.0339617,VALID,18.8835,VALID,185,VALID,0.955448,
1999-11-18, 04:05:00,VALID,0,VALID,98.0916,VALID,0.0849042,VALID,18.8644,VALID,184,VALID,0.981771,
1999-11-18, 04:06:00,VALID,0,VALID,98.1806,VALID,0.0679233,VALID,18.8547,VALID,193,VALID,0.85473,
1999-11-18, 04:07:00,VALID,0,VALID,98.3052,VALID,-0.0339617,VALID,18.8496,VALID,202,VALID,0.648633,
1999-11-18, 04:08:00,VALID,0,VALID,98.3612,VALID,-0.0849042,VALID,18.8501,VALID,191,VALID,1.125,
1999-11-18, 04:09:00,VALID,0,VALID,98.3726,VALID,-0.0679233,VALID,18.8406,VALID,185,VALID,1.10056,
1999-11-18, 04:10:00,VALID,0,VALID,98.3815,VALID,-0.0849042,VALID,18.8434,VALID,197,VALID,0.889358,
1999-11-18, 04:11:00,VALID,0,VALID,98.4273,VALID,-0.0679233,VALID,18.8538,VALID,190,VALID,1.13965,